Flag for Croatia Weather past 2 weeks in Zagreb, Croatia

Now
50 °F

Overcast.


Feels Like: 43 °F
Forecast: 38 / 56 °F
Wind: 25 mph from Northeast

Location: Zagreb / Pleso

Current Time: Mar 27, 2015 at 9:17:59 AM

Latest Report: Mar 27, 2015 at 9:00 AM


Visibility: N/A

Pressure: 29.74 "Hg

Humidity: 82%

Dew point: 45 °F

Location of ZagrebLocation

Historic Weather in Zagreb — Graph

°F

Zagreb temperature yesterday

Maximum temperature yesterday: 68 °F (at 1:30 PM)
Minimum temperature yesterday: 48 °F (at 2:00 AM)
Average temperature yesterday: 55 °F

Past Weeks' High & Low Weather Summary

 TemperatureHumidityPressure
High68 °F (Mar 26, 1:30 PM)100% (Mar 27, 5:30 AM)30.45 "Hg (Mar 27, 5:30 AM)
Low28 °F (Mar 20, 6:00 AM)25% (Mar 21, 1:30 PM)29.65 "Hg (Mar 25, 5:00 PM)
Average47 °F66%30.11 "Hg
* Reported Mar 12 8:00 AM — Mar 27 8:00 AM, Zagreb, Weather by CustomWeather, © 2015

Note: Actual official high and low records may vary slightly from our data, if they occured in-between our weather recording intervals... More about our weather records

Advertising

Zagreb weather history for previous 24 hours

 ConditionsComfort  
Time TempWeatherWind HumidityBarometerVisibility
8:00 AM
Fri, Mar 27
50 °FLight rain. Partly sunny.8 mph100%29.71 "Hg4 mi
7:30 AM48 °FLight rain. Fog.5 mph100%29.71 "Hg3 mi
7:00 AM46 °FFog.No wind100%29.71 "Hg2 mi
6:30 AM46 °FFog.No wind93%29.68 "Hg2 mi
6:00 AM46 °FFog.2 mph93%29.68 "Hg0 mi
5:30 AM45 °FFog.1 mph100%29.68 "Hg0 mi
5:00 AM45 °FFog.2 mph93%29.68 "Hg1 mi
4:00 AM45 °FFog.No wind93%29.68 "Hg0 mi
3:30 AM45 °FFog.No wind93%29.68 "Hg1 mi
3:00 AM45 °FLight fog.1 mph93%29.68 "Hg1 mi
2:30 AM46 °FLight fog.1 mph93%29.68 "Hg1 mi
2:00 AM48 °FLight fog.2 mph94%29.71 "Hg1 mi
1:30 AM48 °FFog.2 mph94%29.71 "Hg4 mi
1:00 AM46 °FFog.2 mph93%29.71 "Hg4 mi
12:30 AM48 °FFog.1 mph94%29.71 "Hg2 mi
12:00 AM50 °FFog.No wind94%29.71 "Hg4 mi
11:30 PM
Thu, Mar 26
50 °FFog.3 mph88%29.74 "Hg2 mi
11:00 PM52 °FFog.2 mph88%29.74 "HgN/A
10:30 PM50 °FClear.3 mph94%29.74 "Hg10 mi
10:00 PM52 °FClear.1 mph94%29.74 "Hg10 mi
9:30 PM52 °FFog.2 mph94%29.74 "HgN/A
9:00 PM52 °FClear.1 mph88%29.74 "Hg10 mi
8:30 PM52 °FFog.2 mph88%29.74 "HgN/A
8:00 PM54 °FClear.3 mph88%29.74 "Hg10 mi
7:30 PM55 °FClear.1 mph82%29.74 "Hg10 mi
7:00 PM57 °FClear.1 mph77%29.71 "Hg10 mi
6:30 PM59 °FClear.1 mph77%29.71 "Hg10 mi
6:00 PM59 °FSunny.5 mph77%29.71 "Hg10 mi
5:30 PM61 °FPassing clouds.2 mph77%29.71 "HgN/A
5:00 PM61 °FPassing clouds.1 mph72%29.71 "HgN/A
4:30 PM61 °FPassing clouds.8 mph72%29.74 "HgN/A
4:00 PM61 °FPassing clouds.9 mph77%29.71 "HgN/A
3:30 PM59 °FThunderstorms. Passing clouds.13 mph82%29.74 "HgN/A
3:00 PM64 °FThunderstorms. Passing clouds.16 mph60%29.71 "HgN/A
2:30 PM66 °FPassing clouds.10 mph52%29.71 "HgN/A
2:00 PM68 °FPassing clouds.9 mph49%29.71 "HgN/A
1:30 PM68 °FPassing clouds.2 mph53%29.74 "HgN/A
1:00 PM66 °FPassing clouds.2 mph56%29.74 "HgN/A
12:30 PM64 °FPassing clouds.2 mph60%29.74 "HgN/A
12:00 PM63 °FPassing clouds.2 mph68%29.74 "HgN/A
11:30 AM61 °FSunny.1 mph68%29.77 "Hg10 mi
11:00 AM59 °FSunny.1 mph72%29.77 "Hg10 mi
10:30 AM59 °FSunny.1 mph68%29.77 "Hg10 mi
10:00 AM57 °FSunny.1 mph67%29.77 "Hg10 mi
9:30 AM55 °FPassing clouds.2 mph72%29.77 "HgN/A
9:00 AM54 °FPassing clouds.2 mph77%29.74 "HgN/A
Weather by CustomWeather, © 2015

See weather overviewHow to use our weather pages